TimeCST,TemperatureF,Dew PointF,Humidity,Sea Level PressureIn,VisibilityMPH,Wind Direction,Wind SpeedMPH,Gust SpeedMPH,PrecipitationIn,Events,Conditions,WindDirDegrees,DateUTC
12:56 AM,32.0,26.1,79,30.17,10.0,Calm,Calm,-,N/A,,Clear,0,2013-03-04 06:56:00
1:56 AM,30.9,26.1,82,30.15,10.0,Calm,Calm,-,N/A,,Clear,0,2013-03-04 07:56:00
2:56 AM,28.9,25.0,85,30.15,10.0,Calm,Calm,-,N/A,,Clear,0,2013-03-04 08:56:00
3:56 AM,30.9,24.1,76,30.15,10.0,Calm,Calm,-,N/A,,Clear,0,2013-03-04 09:56:00
4:56 AM,28.9,25.0,85,30.15,10.0,SE,3.5,-,N/A,,Clear,140,2013-03-04 10:56:00
5:56 AM,28.9,25.0,85,30.17,10.0,East,3.5,-,N/A,,Clear,100,2013-03-04 11:56:00
6:03 AM,30.2,24.8,80,30.13,10.0,East,4.6,-,N/A,,Mostly Cloudy,90,2013-03-04 12:03:00
6:56 AM,32.0,25.0,75,30.17,10.0,SSE,4.6,-,N/A,,Mostly Cloudy,150,2013-03-04 12:56:00
7:56 AM,37.9,28.9,70,30.17,10.0,SE,5.8,-,N/A,,Partly Cloudy,140,2013-03-04 13:56:00
8:56 AM,46.0,30.9,56,30.17,10.0,SSE,5.8,-,N/A,,Partly Cloudy,150,2013-03-04 14:56:00
9:56 AM,55.0,32.0,42,30.14,10.0,South,10.4,16.1,N/A,,Partly Cloudy,170,2013-03-04 15:56:00
10:56 AM,61.0,27.0,27,30.12,10.0,South,9.2,19.6,N/A,,Scattered Clouds,190,2013-03-04 16:56:00
11:56 AM,64.0,30.0,28,30.07,10.0,South,15.0,23.0,N/A,,Mostly Cloudy,180,2013-03-04 17:56:00
12:56 PM,66.9,33.1,28,30.04,10.0,South,11.5,25.3,N/A,,Mostly Cloudy,190,2013-03-04 18:56:00
1:56 PM,68.0,35.1,30,30.01,10.0,South,12.7,21.9,N/A,,Mostly Cloudy,170,2013-03-04 19:56:00
2:56 PM,66.9,35.1,31,29.99,10.0,South,11.5,23.0,N/A,,Mostly Cloudy,170,2013-03-04 20:56:00
3:56 PM,68.0,37.0,32,29.97,10.0,South,17.3,25.3,N/A,,Clear,170,2013-03-04 21:56:00
4:56 PM,64.0,41.0,43,29.96,10.0,South,9.2,20.7,N/A,,Mostly Cloudy,170,2013-03-04 22:56:00
5:56 PM,62.1,42.1,48,29.97,10.0,South,13.8,23.0,N/A,,Mostly Cloudy,190,2013-03-04 23:56:00
6:56 PM,61.0,43.0,52,29.96,10.0,South,12.7,18.4,N/A,,Mostly Cloudy,170,2013-03-05 00:56:00
7:56 PM,59.0,44.1,58,29.98,10.0,South,8.1,23.0,N/A,,Mostly Cloudy,180,2013-03-05 01:56:00
8:56 PM,59.0,46.0,62,29.97,10.0,South,10.4,17.3,N/A,,Overcast,180,2013-03-05 02:56:00
9:56 PM,59.0,46.9,64,29.99,10.0,South,9.2,-,N/A,,Overcast,170,2013-03-05 03:56:00
10:56 PM,59.0,48.0,67,30.00,10.0,South,9.2,-,N/A,,Overcast,180,2013-03-05 04:56:00
11:56 PM,57.9,48.0,70,29.99,10.0,SSE,9.2,-,N/A,,Overcast,160,2013-03-05 05:56:00